Weather in Fedovo

Russia / Arkhangel'skaya Oblast'     62°23′31″N   39°49′40″E
temp.,
°C
wind,
m/s
gust,
m/s
humid.,
%
clouds,
%
prec.,
mm/h
press.,
hPa
HPBL,
m
22 january, sat
sat2200:00−11ese1398100 0.1 100951
03:00−11e119892 0.1 101042
06:00−10e1496100 0.2 1012135
09:00−12e119874 0.3 101420
12:00−12se249641 0.0 1017153
15:00−14ese119858 0.0 10189
18:00−18se119955 0.0 10219
21:00−20se1210057 0.0 102328
23 january, sun
sun2300:00−22s1110077 0.0 10249
03:00−22sse1210082 0.0 102538
06:00−23sse1110080 0.0 102619
09:00−22s2310084 0.0 102653
12:00−16ssw149731 0.0 102787
15:00−14s2497100 0.0 102781
18:00−13s3996100 0.0 1027184
21:00−11s399386 0.0 1027264
24 january, mon
mon2400:00−10ssw4148870 0.0 1027451
03:00−8ssw4149299 0.1 1026537
06:00−7sw51390100 0.1 1026530
09:00−5sw51490100 0.1 1025592
12:00−4sw51491100 0.1 1024608
15:00−3ssw51592100 0.1 1023733
18:00−3ssw51691100 0.1 1022796
21:00−3ssw6189087 0.1 1019763
25 january, tue
tue2500:00−3ssw6178480 0.0 1017758
03:00−6ssw61879100 0.0 1015748
06:00−5ssw61686100 0.0 1013775
09:00−6ssw6158997 0.1 1011709
12:00−6ssw51393100 0.3 1011629
15:00−6ssw41192100 0.8 1010610
18:00−6ssw3995100 0.8 1011456
21:00−7sw2696100 1.0 1013200
26 january, wed
wed2600:00−11nw249892 0.1 101559
03:00−12nnw289786 0.1 1017186
06:00−16nw1110089 0.0 101921
09:00−18nw1110096 0.1 10209
12:00−12nnw129772 0.0 102271
15:00−13wsw119870 0.0 102210
18:00−18wsw0110091 0.0 10239
21:00−21s1110095 0.0 10239